This is the latest recevied weather packets stored in our database for station/object NO4D. If no packets are shown the sender has not sent any weather packets the latest 1 day(s).
| Time | Temp. | Humidity | Pressure | Rain* | Wind** | Luminosity | Snow |
|---|---|---|---|---|---|---|---|
| 1778057606 | 17.78° C | 82% | 1013.6 hPa | 0 mm | 0 m/s | 0 W/m² | - |
| 1778057304 | 17.78° C | 82% | 1013.8 hPa | 0 mm | 0.89 m/s, 190° | 0 W/m² | - |
| 1778057000 | 17.78° C | 81% | 1013.5 hPa | 0 mm | 0 m/s | 0 W/m² | - |
| 1778056697 | 17.78° C | 81% | 1013.8 hPa | 0 mm | 0.89 m/s, 165° | 0 W/m² | - |
| 1778056394 | 17.78° C | 81% | 1013.8 hPa | 0 mm | 0 m/s | 0 W/m² | - |
| 1778056092 | 17.78° C | 81% | 1013.8 hPa | 0 mm | 0.45 m/s, 177° | 0 W/m² | - |
| 1778055788 | 17.78° C | 81% | 1014 hPa | 0 mm | 0.45 m/s, 169° | 0 W/m² | - |
| 1778055485 | 17.78° C | 81% | 1013.9 hPa | 0 mm | 0.45 m/s, 172° | 0 W/m² | - |
| 1778055182 | 17.78° C | 80% | 1013.9 hPa | 0 mm | 0.45 m/s, 193° | 0 W/m² | - |
| 1778054880 | 17.78° C | 80% | 1014.3 hPa | 0 mm | 0.89 m/s, 159° | 0 W/m² | - |
| 1778054576 | 18.33° C | 80% | 1014.1 hPa | 0 mm | 0 m/s | 0 W/m² | - |
| 1778054274 | 18.33° C | 80% | 1014.3 hPa | 0 mm | 1.34 m/s, 178° | 0 W/m² | - |
| 1778053971 | 18.33° C | 80% | 1014.3 hPa | 0 mm | 1.34 m/s, 185° | 0 W/m² | - |
| 1778053668 | 18.33° C | 80% | 1014.2 hPa | 0 mm | 0 m/s | 0 W/m² | - |
| 1778053365 | 18.33° C | 80% | 1014.2 hPa | 0 mm | 0.45 m/s, 147° | 0 W/m² | - |
| 1778053063 | 18.33° C | 80% | 1014.2 hPa | 0 mm | 0.89 m/s, 199° | 0 W/m² | - |
| 1778052760 | 18.33° C | 80% | 1014.1 hPa | 0 mm | 0.89 m/s, 177° | 0 W/m² | - |
| 1778052457 | 18.33° C | 79% | 1013.9 hPa | 0 mm | 0.45 m/s, 203° | 0 W/m² | - |
| 1778052155 | 18.33° C | 79% | 1014.1 hPa | 0 mm | 0.89 m/s, 129° | 0 W/m² | - |
| 1778051852 | 18.33° C | 79% | 1014 hPa | 0 mm | 0 m/s | 0 W/m² | - |
| 1778051550 | 18.33° C | 78% | 1013.7 hPa | 0 mm | 1.79 m/s, 174° | 0 W/m² | - |
| 1778051247 | 18.89° C | 78% | 1014 hPa | 0 mm | 0.45 m/s, 180° | 0 W/m² | - |
| 1778050944 | 18.89° C | 78% | 1013.9 hPa | 0 mm | 0.89 m/s, 155° | 0 W/m² | - |
| 1778050641 | 18.89° C | 78% | 1014 hPa | 0 mm | 0.45 m/s, 147° | 0 W/m² | - |
| 1778050338 | 18.89° C | 77% | 1014.3 hPa | 0 mm | 0.45 m/s, 207° | 0 W/m² | - |
* Rain latest hour (hover to see other rain measurements)
** Current wind speed in m/s (hover to see current wind gust speed)